| time (UTC) | temp F | wind direction | speed knots | gust knots | rain 1hr in | rain 24hr in | rain mn in | humidity % | barometer mb |
| 20260503150903 | 62 | 290 | 5.2 | 8.7 | 0.00 | 0.01 | 0.01 | 69 | 1006.3 |
| 20260503130903 | 61 | 262 | 4.3 | 9.6 | 0.00 | 0.01 | 0.01 | 72 | 1006.8 |
| 20260503080924 | 54 | 241 | 2.6 | 8.7 | 0.00 | 0.01 | 0.01 | 91 | 1006.3 |
| 20260503072703 | 54 | 253 | 5.2 | 10.4 | 0.00 | 0.01 | 0.01 | 92 | 1006.5 |
| 20260503071803 | 54 | 236 | 4.3 | 9.6 | 0.00 | 0.01 | 0.01 | 92 | 1006.4 |
| 20260503070924 | 54 | 226 | 5.2 | 11.3 | 0.00 | 0.01 | 0.01 | 92 | 1006.3 |
| 20260503054503 | 53 | 224 | 3.5 | 8.7 | 0.00 | 0.00 | 0.00 | 92 | 1006.0 |
| 20260503053603 | 53 | 225 | 3.5 | 7.0 | 0.00 | 0.00 | 0.00 | 92 | 1005.9 |
| 20260503052703 | 53 | 226 | 3.5 | 7.0 | 0.00 | 0.00 | 0.00 | 92 | 1005.9 |
| 20260503051803 | 53 | 228 | 3.5 | 7.0 | 0.00 | 0.00 | 0.00 | 92 | 1005.8 |
| 20260503050903 | 53 | 227 | 2.6 | 6.1 | 0.00 | 0.00 | 0.00 | 92 | 1005.8 |
| 20260503050003 | 53 | 227 | 2.6 | 6.1 | 0.00 | 0.00 | 0.00 | 92 | 1005.7 |
| 20260503045424 | 53 | 227 | 3.5 | 7.0 | 0.00 | 0.00 | 0.00 | 92 | 1005.7 |
| 20260503044503 | 53 | 227 | 2.6 | 7.0 | 0.00 | 0.00 | 0.00 | 92 | 1005.7 |
| 20260503043603 | 54 | 226 | 4.3 | 8.7 | 0.00 | 0.00 | 0.00 | 92 | 1005.6 |
| 20260503042703 | 54 | 217 | 5.2 | 9.6 | 0.00 | 0.00 | 0.00 | 92 | 1005.6 |
| 20260503041824 | 54 | 205 | 4.3 | 8.7 | 0.00 | 0.00 | 0.00 | 92 | 1005.6 |
| 20260503040903 | 55 | 193 | 2.6 | 7.8 | 0.00 | 0.00 | 0.00 | 92 | 1005.7 |
| 20260503040003 | 55 | 192 | 1.7 | 5.2 | 0.00 | 0.00 | 0.00 | 92 | 1005.7 |
| 20260503035424 | 55 | 193 | 2.6 | 5.2 | 0.00 | 0.00 | 0.00 | 92 | 1005.6 |
| 20260503034503 | 55 | 194 | 3.5 | 6.1 | 0.00 | 0.00 | 0.00 | 92 | 1005.8 |
| 20260503033603 | 55 | 196 | 2.6 | 5.2 | 0.00 | 0.00 | 0.00 | 92 | 1005.8 |
| 20260503032703 | 55 | 196 | 1.7 | 4.3 | 0.00 | 0.00 | 0.00 | 92 | 1005.7 |
| 20260503031824 | 55 | 197 | 1.7 | 4.3 | 0.00 | 0.00 | 0.00 | 92 | 1005.8 |
| 20260503030924 | 55 | 197 | 1.7 | 5.2 | 0.00 | 0.00 | 0.00 | 92 | 1005.8 |
| 20260503030003 | 55 | 197 | 1.7 | 3.5 | 0.00 | 0.00 | 0.00 | 92 | 1005.9 |
| 20260503025403 | 55 | 197 | 1.7 | 3.5 | 0.00 | 0.00 | 0.00 | 92 | 1006.0 |
| 20260503024503 | 55 | 197 | 1.7 | 4.3 | 0.00 | 0.00 | 0.00 | 92 | 1005.9 |
| 20260503023603 | 55 | 197 | 2.6 | 5.2 | 0.00 | 0.00 | 0.00 | 92 | 1006.0 |
| 20260503022703 | 55 | 197 | 2.6 | 6.1 | 0.00 | 0.00 | 0.00 | 92 | 1005.9 |
| 20260503021803 | 55 | 196 | 2.6 | 6.1 | 0.00 | 0.00 | 0.00 | 92 | 1006.1 |
| 20260503020924 | 55 | 196 | 2.6 | 7.0 | 0.00 | 0.00 | 0.00 | 92 | 1006.1 |
| 20260503020024 | 55 | 194 | 2.6 | 7.0 | 0.00 | 0.00 | 0.00 | 92 | 1006.0 |
| 20260503015403 | 55 | 194 | 2.6 | 7.0 | 0.00 | 0.00 | 0.00 | 92 | 1006.2 |
| 20260503014524 | 56 | 194 | 2.6 | 5.2 | 0.00 | 0.00 | 0.00 | 92 | 1006.2 |
| 20260503013603 | 56 | 194 | 2.6 | 6.1 | 0.00 | 0.00 | 0.00 | 92 | 1006.4 |
| 20260503012703 | 56 | 194 | 2.6 | 6.1 | 0.00 | 0.00 | 0.00 | 92 | 1006.4 |
| 20260503011803 | 56 | 194 | 2.6 | 7.0 | 0.00 | 0.00 | 0.00 | 92 | 1006.5 |
| 20260503010903 | 56 | 196 | 2.6 | 7.0 | 0.00 | 0.00 | 0.00 | 92 | 1006.5 |
| 20260503010003 | 56 | 195 | 3.5 | 8.7 | 0.00 | 0.00 | 0.00 | 92 | 1006.8 |
| 20260503005403 | 56 | 191 | 3.5 | 7.8 | 0.00 | 0.00 | 0.00 | 92 | 1006.8 |
| 20260503004503 | 56 | 195 | 4.3 | 10.4 | 0.00 | 0.00 | 0.00 | 92 | 1006.8 |
| 20260503003603 | 57 | 196 | 3.5 | 8.7 | 0.00 | 0.00 | 0.00 | 92 | 1006.8 |
| 20260503002703 | 58 | 154 | 3.5 | 8.7 | 0.00 | 0.00 | 0.00 | 92 | 1006.7 |
| 20260503001803 | 58 | 141 | 2.6 | 7.0 | 0.00 | 0.00 | 0.00 | 92 | 1006.7 |
| 20260503000903 | 58 | 140 | 2.6 | 6.1 | 0.00 | 0.00 | 0.00 | 92 | 1006.8 |
| 20260503000024 | 58 | 137 | 2.6 | 7.0 | 0.00 | 0.00 | 0.00 | 92 | 1006.9 |
| 20260502235403 | 58 | 132 | 2.6 | 7.8 | 0.00 | 0.00 | 0.00 | 92 | 1006.9 |
| 20260502234503 | 58 | 120 | 2.6 | 7.0 | 0.00 | 0.00 | 0.00 | 92 | 1007.0 |
| 20260502233624 | 58 | 116 | 1.7 | 6.1 | 0.00 | 0.00 | 0.00 | 92 | 1007.0 |
| 20260502232703 | 58 | 113 | 1.7 | 6.1 | 0.00 | 0.00 | 0.00 | 92 | 1007.0 |
| 20260502231803 | 58 | 112 | 1.7 | 6.1 | 0.00 | 0.00 | 0.00 | 92 | 1007.0 |
| 20260502230924 | 58 | 112 | 1.7 | 5.2 | 0.00 | 0.00 | 0.00 | 92 | 1007.1 |
| 20260502230004 | 58 | 111 | 3.5 | 7.0 | 0.00 | 0.00 | 0.00 | 92 | 1007.1 |
| 20260502225424 | 58 | 110 | 2.6 | 7.0 | 0.00 | 0.00 | 0.00 | 92 | 1007.1 |
| 20260502224503 | 58 | 113 | 1.7 | 3.5 | 0.00 | 0.00 | 0.00 | 92 | 1007.1 |
| 20260502223603 | 58 | 114 | 2.6 | 7.0 | 0.00 | 0.00 | 0.00 | 92 | 1007.1 |
| 20260502222724 | 58 | 115 | 1.7 | 3.5 | 0.00 | 0.00 | 0.00 | 92 | 1007.2 |
| 20260502221803 | 57 | 118 | 0.9 | 7.0 | 0.00 | 0.00 | 0.00 | 92 | 1007.3 |
| 20260502220924 | 57 | 169 | 1.7 | 7.0 | 0.00 | 0.00 | 0.00 | 92 | 1007.4 |
| 20260502220003 | 57 | 231 | 1.7 | 3.5 | 0.00 | 0.00 | 0.00 | 92 | 1007.5 |
| 20260502215403 | 57 | 232 | 1.7 | 3.5 | 0.00 | 0.00 | 0.00 | 92 | 1007.6 |
| 20260502214503 | 57 | 233 | 1.7 | 3.5 | 0.00 | 0.00 | 0.00 | 92 | 1007.7 |
| 20260502213603 | 57 | 233 | 0.9 | 3.5 | 0.00 | 0.00 | 0.00 | 92 | 1007.8 |
| 20260502212703 | 57 | 233 | 0.9 | 3.5 | 0.00 | 0.00 | 0.00 | 92 | 1007.9 |
| 20260502211824 | 57 | 234 | 0.9 | 2.6 | 0.00 | 0.00 | 0.00 | 92 | 1007.9 |
| 20260502210903 | 57 | 233 | 0.9 | 3.5 | 0.00 | 0.00 | 0.00 | 92 | 1008.0 |
| 20260502210003 | 57 | 233 | 0.9 | 4.3 | 0.00 | 0.00 | 0.00 | 92 | 1008.2 |
| 20260502205403 | 57 | 233 | 0.9 | 2.6 | 0.00 | 0.00 | 0.00 | 92 | 1008.3 |
| 20260502204503 | 57 | 233 | 1.7 | 3.5 | 0.00 | 0.00 | 0.00 | 92 | 1008.4 |
| 20260502203603 | 58 | 233 | 0.9 | 2.6 | 0.00 | 0.00 | 0.00 | 92 | 1008.3 |
| 20260502202703 | 58 | 233 | 0.9 | 3.5 | 0.00 | 0.00 | 0.00 | 92 | 1008.4 |
| 20260502201803 | 58 | 233 | 0.9 | 2.6 | 0.00 | 0.00 | 0.00 | 92 | 1008.5 |
| 20260502200903 | 58 | 233 | 0.9 | 2.6 | 0.00 | 0.00 | 0.00 | 92 | 1008.6 |
| 20260502200003 | 58 | 233 | 0.9 | 2.6 | 0.00 | 0.00 | 0.00 | 92 | 1008.5 |
| 20260502195403 | 58 | 233 | 0.9 | 2.6 | 0.00 | 0.00 | 0.00 | 92 | 1008.5 |
| 20260502194503 | 58 | 0 | 0.0 | 1.7 | 0.00 | 0.00 | 0.00 | 92 | 1008.5 |
| 20260502193624 | 58 | 0 | 0.0 | 0.0 | 0.00 | 0.00 | 0.00 | 92 | 1008.6 |
| 20260502192703 | 57 | 0 | 0.0 | 1.7 | 0.00 | 0.00 | 0.00 | 91 | 1008.7 |
| 20260502191824 | 57 | 233 | 0.9 | 2.6 | 0.00 | 0.00 | 0.00 | 91 | 1008.5 |
| 20260502190903 | 57 | 0 | 0.0 | 2.6 | 0.00 | 0.00 | 0.00 | 91 | 1008.7 |
| 20260502190024 | 57 | 233 | 0.9 | 2.6 | 0.00 | 0.00 | 0.00 | 91 | 1009.0 |
| 20260502185403 | 57 | 233 | 0.9 | 2.6 | 0.00 | 0.00 | 0.00 | 91 | 1009.1 |
| 20260502184503 | 58 | 233 | 0.9 | 3.5 | 0.00 | 0.00 | 0.00 | 90 | 1009.1 |
| 20260502183603 | 58 | 233 | 2.6 | 4.3 | 0.00 | 0.00 | 0.00 | 90 | 1009.1 |
| 20260502182703 | 58 | 232 | 2.6 | 6.1 | 0.00 | 0.00 | 0.00 | 90 | 1009.2 |
| 20260502181803 | 58 | 234 | 3.5 | 8.7 | 0.00 | 0.00 | 0.00 | 89 | 1009.3 |
| 20260502180903 | 58 | 217 | 6.1 | 10.4 | 0.00 | 0.00 | 0.00 | 88 | 1009.5 |